Simultaneous Nadir Overpasses (SNOs) Predictions

Prediction of SNOs between NPP and TERRA Satellite Orbit:

Table of predicted SNOs for the next 14.0 days since TLE Epoch: 12/19/2015
Index Date (NPP) Time (NPP) Lat,Lon (NPP) SZA (NPP ) Date (TERRA) Time (TERRA) Lat,Lon (TERRA) SZA (TERRA ) Distance(km) Time Diff (sec)
1 12/21/2015 01:17:04 -68.61, -20.36 88.08 12/21/2015 01:18:11 -68.63, -20.42 88.06 3.36 67
2 12/21/2015 02:07:48 68.49, 147.10 91.81 12/21/2015 02:07:39 68.48, 147.04 91.79 3.16 9
3 12/21/2015 02:58:25 -68.14, -45.12 88.55 12/21/2015 02:57:12 -68.20, -45.66 88.49 23.46 73
4 12/23/2015 17:33:57 -68.59, 95.44 88.11 12/23/2015 17:34:48 -68.59, 95.38 88.10 2.64 51
5 12/23/2015 18:24:41 68.47, -97.10 91.78 12/23/2015 18:24:15 68.49, -97.10 91.80 2.72 26
6 12/23/2015 19:15:07 -67.52, 71.41 89.18 12/23/2015 19:13:59 -67.61, 69.50 89.08 81.68 68
7 12/26/2015 09:50:49 -68.56,-148.76 88.19 12/26/2015 09:51:28 -68.57,-148.82 88.18 2.54 39
8 12/26/2015 10:41:33 68.45, 18.70 91.70 12/26/2015 10:40:55 68.47, 18.70 91.72 2.40 38
9 12/29/2015 02:07:42 -68.54, -32.96 88.32 12/29/2015 02:08:13 -68.56, -33.02 88.30 2.86 31
10 12/29/2015 02:58:26 68.43, 134.49 91.57 12/29/2015 02:57:40 68.46, 134.51 91.60 3.40 46
11 12/31/2015 17:34:11 69.58, -85.94 92.58 12/31/2015 17:35:17 69.49, -83.67 92.46 89.21 66
12 12/31/2015 18:24:36 -68.58, 82.76 88.45 12/31/2015 18:25:02 -68.57, 82.79 88.47 2.13 26
13 12/31/2015 19:15:19 68.42,-109.72
